Time,TemperatureF,DewpointF,PressureIn,WindDirection,WindDirectionDegrees,WindSpeedMPH,WindSpeedGustMPH,Humidity,HourlyPrecipIn,Conditions,Clouds,dailyrainin,SolarRadiationWatts/m^2,SoftwareType,DateUTC
2013-09-04 00:02:00,61.3,59.0,29.96,SSE,147,1.0,4.0,91,0.00,,,0.00,0,weatherlink.com 1.10,2013-09-04 07:02:00,
2013-09-04 00:18:00,61.2,59.0,29.96,SE,137,5.0,9.0,92,0.00,,,0.00,0,weatherlink.com 1.10,2013-09-04 07:18:00,
2013-09-04 00:33:00,61.0,59.0,29.96,SE,136,1.0,7.0,92,0.00,,,0.00,0,weatherlink.com 1.10,2013-09-04 07:33:00,
2013-09-04 00:48:00,60.9,59.0,29.96,SE,146,4.0,8.0,92,0.00,,,0.00,0,weatherlink.com 1.10,2013-09-04 07:48:00,
2013-09-04 01:03:00,60.8,59.0,29.97,SE,140,3.0,9.0,93,0.00,,,0.00,0,weatherlink.com 1.10,2013-09-04 08:03:00,
2013-09-04 01:18:00,60.6,59.0,29.97,SE,140,4.0,6.0,93,0.00,,,0.00,0,weatherlink.com 1.10,2013-09-04 08:18:00,
2013-09-04 01:33:00,60.3,58.0,29.96,SE,138,3.0,5.0,93,0.00,,,0.00,0,weatherlink.com 1.10,2013-09-04 08:33:00,
2013-09-04 01:48:00,60.4,58.0,29.97,SSE,150,2.0,5.0,93,0.00,,,0.00,0,weatherlink.com 1.10,2013-09-04 08:48:00,
2013-09-04 02:03:00,60.5,59.0,29.97,SSE,150,0.0,4.0,93,0.00,,,0.00,0,weatherlink.com 1.10,2013-09-04 09:03:00,
2013-09-04 02:18:00,60.5,59.0,29.97,SSE,153,2.0,4.0,93,0.00,,,0.00,0,weatherlink.com 1.10,2013-09-04 09:18:00,
2013-09-04 02:33:00,60.7,58.0,29.97,SE,146,2.0,4.0,92,0.00,,,0.00,0,weatherlink.com 1.10,2013-09-04 09:33:00,
2013-09-04 02:48:00,60.9,58.0,29.97,SSE,148,3.0,5.0,91,0.00,,,0.00,0,weatherlink.com 1.10,2013-09-04 09:48:00,
2013-09-04 03:03:00,60.9,58.0,29.97,ESE,123,5.0,7.0,91,0.00,,,0.00,0,weatherlink.com 1.10,2013-09-04 10:03:00,
2013-09-04 03:18:00,60.8,58.0,29.97,SSE,155,1.0,5.0,91,0.00,,,0.00,0,weatherlink.com 1.10,2013-09-04 10:18:00,
2013-09-04 03:33:00,60.5,58.0,29.97,SE,142,4.0,4.0,91,0.00,,,0.00,0,weatherlink.com 1.10,2013-09-04 10:33:00,
2013-09-04 03:48:00,60.3,58.0,29.97,SE,136,4.0,5.0,92,0.00,,,0.00,0,weatherlink.com 1.10,2013-09-04 10:48:00,
2013-09-04 04:03:00,60.0,58.0,29.97,SE,132,4.0,7.0,92,0.00,,,0.00,0,weatherlink.com 1.10,2013-09-04 11:03:00,
2013-09-04 04:18:00,59.8,58.0,29.97,SSE,150,0.0,3.0,92,0.00,,,0.00,0,weatherlink.com 1.10,2013-09-04 11:18:00,
2013-09-04 04:33:00,59.5,57.0,29.97,SSE,147,0.0,5.0,92,0.00,,,0.00,0,weatherlink.com 1.10,2013-09-04 11:33:00,
2013-09-04 04:48:00,59.3,57.0,29.98,SSE,147,0.0,3.0,92,0.00,,,0.00,0,weatherlink.com 1.10,2013-09-04 11:48:00,
2013-09-04 05:03:00,59.2,57.0,29.97,SSE,147,2.0,3.0,93,0.00,,,0.00,0,weatherlink.com 1.10,2013-09-04 12:03:00,
2013-09-04 05:18:00,59.1,57.0,29.97,SE,146,0.0,3.0,93,0.00,,,0.00,0,weatherlink.com 1.10,2013-09-04 12:18:00,
2013-09-04 05:33:00,59.1,57.0,29.98,SE,142,3.0,4.0,93,0.00,,,0.00,0,weatherlink.com 1.10,2013-09-04 12:33:00,
2013-09-04 05:48:00,59.1,57.0,29.98,SE,143,1.0,3.0,93,0.00,,,0.00,0,weatherlink.com 1.10,2013-09-04 12:48:00,
2013-09-04 06:03:00,58.8,57.0,29.98,SE,142,0.0,4.0,93,0.00,,,0.00,0,weatherlink.com 1.10,2013-09-04 13:03:00,
2013-09-04 06:18:00,58.7,57.0,29.98,SE,143,1.0,4.0,93,0.00,,,0.00,0,weatherlink.com 1.10,2013-09-04 13:18:00,
2013-09-04 06:33:00,58.8,57.0,29.99,SE,144,1.0,5.0,93,0.00,,,0.00,0,weatherlink.com 1.10,2013-09-04 13:33:00,
2013-09-04 06:48:00,59.0,57.0,29.99,SE,142,1.0,3.0,93,0.00,,,0.00,5,weatherlink.com 1.10,2013-09-04 13:48:00,
2013-09-04 07:03:00,59.0,57.0,30.00,SSE,157,1.0,3.0,93,0.00,,,0.00,18,weatherlink.com 1.10,2013-09-04 14:03:00,
2013-09-04 07:18:00,59.2,57.0,30.00,SE,144,2.0,4.0,93,0.00,,,0.00,16,weatherlink.com 1.10,2013-09-04 14:18:00,
2013-09-04 07:33:00,59.3,57.0,30.00,SE,145,2.0,2.0,93,0.00,,,0.00,25,weatherlink.com 1.10,2013-09-04 14:33:00,
2013-09-04 07:48:00,59.6,58.0,30.01,SE,144,0.0,3.0,93,0.00,,,0.00,32,weatherlink.com 1.10,2013-09-04 14:48:00,
2013-09-04 08:03:00,60.2,58.0,30.01,SE,144,1.0,4.0,92,0.00,,,0.00,44,weatherlink.com 1.10,2013-09-04 15:03:00,
2013-09-04 08:18:00,61.0,59.0,30.01,SSE,148,3.0,5.0,92,0.00,,,0.00,83,weatherlink.com 1.10,2013-09-04 15:18:00,
2013-09-04 08:33:00,61.8,59.0,30.01,SE,146,3.0,4.0,90,0.00,,,0.00,127,weatherlink.com 1.10,2013-09-04 15:33:00,
2013-09-04 08:48:00,62.5,59.0,30.02,SSE,155,2.0,3.0,88,0.00,,,0.00,116,weatherlink.com 1.10,2013-09-04 15:48:00,
2013-09-04 09:03:00,62.8,59.0,30.02,South,171,0.0,3.0,87,0.00,,,0.00,153,weatherlink.com 1.10,2013-09-04 16:03:00,
2013-09-04 09:18:00,63.2,59.0,30.02,SSE,153,0.0,4.0,86,0.00,,,0.00,450,weatherlink.com 1.10,2013-09-04 16:18:00,
2013-09-04 09:33:00,65.3,60.0,30.02,SSE,168,1.0,5.0,82,0.00,,,0.00,571,weatherlink.com 1.10,2013-09-04 16:33:00,
2013-09-04 09:48:00,65.8,60.0,30.02,SSW,207,1.0,4.0,82,0.00,,,0.00,613,weatherlink.com 1.10,2013-09-04 16:48:00,
2013-09-04 10:04:00,67.6,60.0,30.03,South,189,0.0,4.0,77,0.00,,,0.00,596,weatherlink.com 1.10,2013-09-04 17:04:00,
2013-09-04 10:19:00,69.6,61.0,30.02,SSW,211,1.0,3.0,74,0.00,,,0.00,635,weatherlink.com 1.10,2013-09-04 17:19:00,
2013-09-04 10:34:00,70.4,61.0,30.02,South,169,3.0,4.0,71,0.00,,,0.00,671,weatherlink.com 1.10,2013-09-04 17:34:00,
2013-09-04 10:49:00,70.3,60.0,30.03,South,179,1.0,4.0,70,0.00,,,0.00,712,weatherlink.com 1.10,2013-09-04 17:49:00,
2013-09-04 11:04:00,70.6,60.0,30.02,SE,146,2.0,5.0,68,0.00,,,0.00,744,weatherlink.com 1.10,2013-09-04 18:04:00,
2013-09-04 11:19:00,71.2,61.0,30.02,South,180,1.0,6.0,71,0.00,,,0.00,770,weatherlink.com 1.10,2013-09-04 18:19:00,
2013-09-04 11:34:00,70.6,62.0,30.02,SSW,193,2.0,8.0,73,0.00,,,0.00,796,weatherlink.com 1.10,2013-09-04 18:34:00,
2013-09-04 11:49:00,71.3,61.0,30.02,SSW,211,3.0,6.0,70,0.00,,,0.00,821,weatherlink.com 1.10,2013-09-04 18:49:00,
2013-09-04 12:04:00,70.8,61.0,30.02,SSE,148,5.0,8.0,71,0.00,,,0.00,838,weatherlink.com 1.10,2013-09-04 19:04:00,
2013-09-04 12:19:00,70.6,60.0,30.01,SSE,153,5.0,11.0,70,0.00,,,0.00,858,weatherlink.com 1.10,2013-09-04 19:19:00,
2013-09-04 12:34:00,70.2,62.0,30.02,SE,132,7.0,10.0,74,0.00,,,0.00,868,weatherlink.com 1.10,2013-09-04 19:34:00,
2013-09-04 12:49:00,70.4,61.0,30.01,SSE,158,2.0,9.0,72,0.00,,,0.00,879,weatherlink.com 1.10,2013-09-04 19:49:00,
2013-09-04 13:04:00,69.4,61.0,30.01,South,175,8.0,12.0,74,0.00,,,0.00,881,weatherlink.com 1.10,2013-09-04 20:04:00,
2013-09-04 13:19:00,69.8,61.0,30.00,SSE,157,6.0,10.0,74,0.00,,,0.00,882,weatherlink.com 1.10,2013-09-04 20:19:00,
2013-09-04 13:34:00,71.2,61.0,30.00,SSE,156,5.0,10.0,71,0.00,,,0.00,884,weatherlink.com 1.10,2013-09-04 20:34:00,
2013-09-04 13:49:00,72.9,61.0,30.00,SSE,148,3.0,8.0,67,0.00,,,0.00,874,weatherlink.com 1.10,2013-09-04 20:49:00,
2013-09-04 14:04:00,73.7,62.0,29.99,SSW,200,4.0,6.0,66,0.00,,,0.00,865,weatherlink.com 1.10,2013-09-04 21:04:00,
2013-09-04 14:19:00,74.8,59.0,29.99,SSE,164,0.0,6.0,59,0.00,,,0.00,847,weatherlink.com 1.10,2013-09-04 21:19:00,
2013-09-04 14:34:00,75.3,60.0,29.98,SSE,153,6.0,9.0,59,0.00,,,0.00,828,weatherlink.com 1.10,2013-09-04 21:34:00,
2013-09-04 14:49:00,76.4,59.0,29.98,South,182,4.0,5.0,56,0.00,,,0.00,810,weatherlink.com 1.10,2013-09-04 21:49:00,
2013-09-04 15:05:00,77.5,58.0,29.97,South,182,1.0,7.0,52,0.00,,,0.00,780,weatherlink.com 1.10,2013-09-04 22:05:00,
2013-09-04 15:20:00,76.8,59.0,29.97,SE,136,2.0,7.0,55,0.00,,,0.00,752,weatherlink.com 1.10,2013-09-04 22:20:00,
2013-09-04 15:35:00,76.1,60.0,29.97,SSE,157,4.0,8.0,57,0.00,,,0.00,719,weatherlink.com 1.10,2013-09-04 22:35:00,
2013-09-04 15:50:00,76.4,60.0,29.96,SSE,149,4.0,6.0,58,0.00,,,0.00,682,weatherlink.com 1.10,2013-09-04 22:50:00,
2013-09-04 16:05:00,77.5,58.0,29.95,SSW,192,1.0,7.0,52,0.00,,,0.00,650,weatherlink.com 1.10,2013-09-04 23:05:00,
2013-09-04 16:20:00,80.1,57.0,29.95,South,191,3.0,7.0,46,0.00,,,0.00,612,weatherlink.com 1.10,2013-09-04 23:20:00,
2013-09-04 16:35:00,80.2,60.0,29.95,SSW,194,0.0,6.0,51,0.00,,,0.00,566,weatherlink.com 1.10,2013-09-04 23:35:00,
2013-09-04 16:50:00,79.5,60.0,29.94,SW,223,2.0,8.0,51,0.00,,,0.00,522,weatherlink.com 1.10,2013-09-04 23:50:00,
2013-09-04 17:05:00,77.9,59.0,29.94,WSW,240,2.0,7.0,53,0.00,,,0.00,469,weatherlink.com 1.10,2013-09-05 00:05:00,
2013-09-04 17:20:00,77.2,59.0,29.94,SW,215,2.0,8.0,54,0.00,,,0.00,424,weatherlink.com 1.10,2013-09-05 00:20:00,
2013-09-04 17:35:00,77.7,59.0,29.94,SSW,204,2.0,6.0,52,0.00,,,0.00,373,weatherlink.com 1.10,2013-09-05 00:35:00,
2013-09-04 17:50:00,76.9,60.0,29.93,SSE,157,3.0,5.0,56,0.00,,,0.00,323,weatherlink.com 1.10,2013-09-05 00:50:00,
2013-09-04 18:05:00,75.6,58.0,29.93,WNW,300,0.0,6.0,55,0.00,,,0.00,271,weatherlink.com 1.10,2013-09-05 01:05:00,
2013-09-04 18:20:00,75.2,58.0,29.93,SW,217,0.0,3.0,55,0.00,,,0.00,197,weatherlink.com 1.10,2013-09-05 01:20:00,
2013-09-04 18:35:00,74.0,57.0,29.93,NNE,21,2.0,7.0,55,0.00,,,0.00,32,weatherlink.com 1.10,2013-09-05 01:35:00,
2013-09-04 18:50:00,72.9,57.0,29.93,North,5,1.0,4.0,57,0.00,,,0.00,23,weatherlink.com 1.10,2013-09-05 01:50:00,
2013-09-04 19:05:00,71.8,57.0,29.93,West,260,1.0,3.0,60,0.00,,,0.00,16,weatherlink.com 1.10,2013-09-05 02:05:00,
2013-09-04 19:20:00,70.6,57.0,29.93,WNW,298,0.0,4.0,62,0.00,,,0.00,9,weatherlink.com 1.10,2013-09-05 02:20:00,
2013-09-04 19:35:00,69.6,57.0,29.93,South,178,1.0,3.0,64,0.00,,,0.00,0,weatherlink.com 1.10,2013-09-05 02:35:00,
2013-09-04 19:50:00,68.8,57.0,29.94,South,186,0.0,1.0,66,0.00,,,0.00,0,weatherlink.com 1.10,2013-09-05 02:50:00,
2013-09-04 20:05:00,68.1,59.0,29.94,SSE,164,1.0,3.0,73,0.00,,,0.00,0,weatherlink.com 1.10,2013-09-05 03:05:00,
2013-09-04 20:20:00,67.0,56.0,29.94,WSW,253,0.0,4.0,69,0.00,,,0.00,0,weatherlink.com 1.10,2013-09-05 03:20:00,
2013-09-04 20:35:00,66.3,56.0,29.94,SW,214,1.0,3.0,70,0.00,,,0.00,0,weatherlink.com 1.10,2013-09-05 03:35:00,
2013-09-04 20:50:00,64.9,59.0,29.95,SE,135,1.0,7.0,82,0.00,,,0.00,0,weatherlink.com 1.10,2013-09-05 03:50:00,
2013-09-04 21:05:00,63.9,59.0,29.95,SE,139,5.0,6.0,84,0.00,,,0.00,0,weatherlink.com 1.10,2013-09-05 04:05:00,
2013-09-04 21:20:00,63.5,59.0,29.95,SSE,148,4.0,7.0,86,0.00,,,0.00,0,weatherlink.com 1.10,2013-09-05 04:20:00,
2013-09-04 21:35:00,63.4,59.0,29.95,SE,132,2.0,7.0,86,0.00,,,0.00,0,weatherlink.com 1.10,2013-09-05 04:35:00,
2013-09-04 21:50:00,63.0,59.0,29.95,SE,137,4.0,8.0,87,0.00,,,0.00,0,weatherlink.com 1.10,2013-09-05 04:50:00,
2013-09-04 22:05:00,62.3,59.0,29.96,SE,134,2.0,7.0,88,0.00,,,0.00,0,weatherlink.com 1.10,2013-09-05 05:05:00,
2013-09-04 22:20:00,62.0,59.0,29.96,South,182,3.0,7.0,88,0.00,,,0.00,0,weatherlink.com 1.10,2013-09-05 05:20:00,
2013-09-04 22:35:00,62.0,58.0,29.96,SE,146,3.0,7.0,87,0.00,,,0.00,0,weatherlink.com 1.10,2013-09-05 05:35:00,
2013-09-04 22:50:00,62.0,59.0,29.96,SE,146,7.0,7.0,88,0.00,,,0.00,0,weatherlink.com 1.10,2013-09-05 05:50:00,
2013-09-04 23:05:00,62.0,59.0,29.96,ESE,120,4.0,9.0,88,0.00,,,0.00,0,weatherlink.com 1.10,2013-09-05 06:05:00,
2013-09-04 23:20:00,61.9,58.0,29.96,SE,134,3.0,11.0,88,0.00,,,0.00,0,weatherlink.com 1.10,2013-09-05 06:20:00,
2013-09-04 23:35:00,61.8,58.0,29.96,SE,133,5.0,8.0,88,0.00,,,0.00,0,weatherlink.com 1.10,2013-09-05 06:35:00,
2013-09-04 23:50:00,61.4,58.0,29.96,SSE,161,2.0,7.0,89,0.00,,,0.00,0,weatherlink.com 1.10,2013-09-05 06:50:00,